COSMOS 249 DEB, 6764

Orbit data source: Space-Track

COSMOS 249 DEB, 6764 is space debris in LEO originally from a launch on Sun, 20 Oct 1968 UTC launched from the Tyuratam Missile And Space Complex (TTMTR). Debris objects in space refer to the collection of defunct objects orbiting the Earth. Examples of debris include non-operational satellites, rocket bodies, and fragments generated from explosions, collisions, or faulty payload assembly.

Loading next visibility...
Identifier
6764, 1968-091CK
Orbit
LEO
Country
Flag of CISCIS
Related business
Manufacturer
Unknown
Mission
Spacecraft
Bus & Motor
Unknown
Mass
Unknown
Launch date (UTC)
1968-10-20 (57 years ago)
Launch vehicle
Unknown
Launch site
Tyuratam Missile And Space Complex (TTMTR)
Object type
Payload
Rocket body
Debris
Shape & HBR
Unknown shape, 0.1 m
Radar Cross Section
Small (<0.1 m²)

Expand to show TLE details & history
Last TLE update: 1 day ago

TLE from 1 day ago
0 COSMOS 249 DEB
1 06764U 68091CK  25340.41460541  .00000073  00000-0  41686-3 0  9994
2 06764  62.3420 127.0393 0752727 320.7329  61.2632 12.38120330701307
Epoch: 2025-12-06T09:57Z
TLE epoch observation values (Epoch: 2025-12-06T09:57:01.907Z)
Latitude
26.24891°
Longitude
-82.7616°
Altitude
1,267.09 km
Speed
7.338 km/s
True Right ascension
09h 27m 45s
True Declination
26° 07' 19"
Sunlit
Object was in daylight at epoch
Visualization orbit readout
Latitude
Unknown
Longitude
Unknown
Altitude
Unknown
Speed
Unknown
Apparent Right ascension
Unknown
Apparent Declination
Unknown
Sunlit
N/A
Visualization observer readout
Local Sidereal Time
09:07:44
Azimuth
Unknown
Elevation
Unknown
Doppler factor
Unknown
Orbital elements
Apogee altitude
2,107.623 km
Perigee altitude
919.56 km
Semi-major axis
7,891.728 km
Eccentricity
0.07527
Inclination
62.342°
RAAN
127.0393°
Arg. of periapsis
320.7329°
True anomaly
69.1589°
Mean anomaly
61.2632°
Eccentric anomaly
65.17756°
Mean motion
3.09589 °/min
Orbital period
116.28 mins
BSTAR
0.00041686
Loading maneuver chart data...
Computing Atmospheric mass density...

Documentation

Showing up to 5 results
|